Flag for Germany Weather past 2 weeks in Rheinberg, North Rhine-Westphalia, Germany

Now
41 °F

Overcast.


Feels Like: 41 °F
Forecast: 49 / 68 °F
Wind: 1 mph from South

Location: Duesseldorf


UV Index: 3 (Moderate)

Visibility: 11 mi


Pressure: 30.01 "Hg

Humidity: 91%

Dew point: 38 °F

Location of RheinbergLocation

Historic Weather in Rheinberg

°F

Rheinberg temperature yesterday

Maximum temperature yesterday: 54 °F (at 5:00 PM)
Minimum temperature yesterday: 43 °F (at 7:00 AM)
Average temperature yesterday: 49 °F

Past Weeks' High & Low Weather Summary

 TemperatureHumidityPressure
High70 °F (Apr 7, 4:00 PM)97% (Apr 12, 8:00 AM)30.47 "Hg (Apr 12, 8:00 AM)
Low30 °F (Apr 16, 5:00 AM)26% (Apr 17, 5:00 PM)29.72 "Hg (Apr 4, 5:00 AM)
Average52 °F68%30.09 "Hg
* Reported Apr 4 5:00 AM — Apr 19 5:00 AM, Rheinberg, Weather by CustomWeather, © 2014

Note: Actual official high and low records may vary slightly from our data, if they occured in-between our weather recording intervals... More about our weather records

Advertising

Historic Weather Conditions — Data for Previous 24 hours

 ConditionsComfort  
Time TempWeatherWind HumidityBarometerVisibility
5:00 AM
Apr 19
41 °FOvercast.1 mph91%30.01 "Hg11 mi
4:00 AM41 °FOvercast.1 mph88%30.01 "Hg14 mi
3:00 AM43 °FOvercast.3 mph85%30.01 "Hg17 mi
2:00 AM42 °FOvercast.3 mph87%30.01 "Hg19 mi
1:00 AM42 °FPassing clouds.2 mph84%30.02 "Hg19 mi
12:00 AM42 °FPassing clouds.3 mph81%30.01 "Hg22 mi
11:00 PM
Apr 18
44 °FPassing clouds.3 mph77%30.01 "Hg22 mi
10:00 PM45 °FPassing clouds.2 mph71%30.01 "Hg22 mi
9:00 PM48 °FPassing clouds.6 mph58%29.99 "Hg22 mi
8:00 PM51 °FScattered clouds.9 mph55%29.97 "Hg22 mi
7:00 PM52 °FPassing clouds.7 mph53%29.97 "Hg22 mi
6:00 PM52 °FPartly sunny.6 mph56%29.97 "Hg22 mi
5:00 PM54 °FScattered clouds.6 mph46%29.97 "Hg22 mi
4:00 PM54 °FScattered clouds.8 mph46%29.98 "Hg22 mi
3:00 PM53 °FScattered clouds.7 mph48%29.98 "Hg22 mi
2:00 PM53 °FScattered clouds.7 mph47%29.98 "Hg22 mi
1:00 PM51 °FScattered clouds.7 mph49%29.98 "Hg19 mi
12:00 PM50 °FScattered clouds.7 mph55%29.98 "Hg22 mi
11:00 AM50 °FScattered clouds.7 mph57%29.97 "Hg19 mi
10:00 AM48 °FPartly sunny.6 mph70%29.97 "Hg16 mi
9:00 AM46 °FPartly sunny.5 mph80%29.96 "Hg19 mi
8:00 AM44 °FPassing clouds.2 mph85%29.95 "Hg16 mi
7:00 AM43 °FPassing clouds.3 mph88%29.94 "Hg19 mi
6:00 AM44 °FPassing clouds.5 mph86%29.93 "Hg12 mi
5:00 AM45 °FPassing clouds.3 mph91%29.93 "Hg11 mi
Weather by CustomWeather, © 2014

See weather overview